Location: Newark
(13.8117°N, 3.6025°W)
Time: 22:59:29
(UTC+00:00)

S-56A Canister/Altair - Visible Passes

Search period start: 24 August 2019 00:00
Search period end: 03 September 2019 00:00
Orbit: 633 x 2499 km, 38.9° (Epoch: 23 August)

Date Brightness Start Highest point End Pass type
(mag) Time Alt. Az. Time Alt. Az. Time Alt. Az.
24 Aug 8.2 03:54:41 75° W 03:55:22 82° SW 04:05:19 10° SE visible
24 Aug 9.5 18:53:46 10° WSW 19:00:35 37° NW 19:05:30 10° NNE visible
25 Aug 9.0 03:24:53 50° ESE 03:24:53 50° ESE 03:31:45 10° SE visible
25 Aug 9.9 05:22:24 12° W 05:27:52 24° SW 05:35:58 10° SSE visible
26 Aug 10.2 02:55:01 23° ESE 02:55:01 23° ESE 02:58:12 10° ESE visible
26 Aug 9.4 04:52:31 23° WSW 04:54:46 26° SW 05:02:54 10° SSE visible
27 Aug 9.4 04:22:34 29° SSW 04:22:34 29° SSW 04:29:46 10° SSE visible
27 Aug 10.3 19:23:36 10° WNW 19:26:42 13° NNW 19:29:24 10° N visible
28 Aug 9.9 03:52:30 23° S 03:52:30 23° S 03:56:38 10° SSE visible
28 Aug 10.2 18:49:04 10° WNW 18:53:54 18° NW 18:57:48 10° N visible
29 Aug 10.6 03:22:21 14° SSE 03:22:21 14° SSE 03:23:32 10° SSE visible
